H-2A R/B, 27369

Orbit data source: Space-Track

H-2A R/B, 27369 is space debris in HEO originally from a launch on Mon, 04 Feb 2002 UTC launched from the Tanegashima Space Center (TNSTA). Debris objects in space refer to the collection of defunct objects orbiting the Earth. Examples of debris include non-operational satellites, rocket bodies, and fragments generated from explosions, collisions, or faulty payload assembly.

Loading next visibility...
Identifier
27369, 2002-003C
Orbit
HEO
Country
Flag of JPJP / JPN
Related business
Manufacturer
Unknown
Mission
Spacecraft
Bus & Motor
H-2A STAGE 2, Unknown motor
Mass
4,000 kg wet, 4,000 kg dry
Launch date (UTC)
2002-02-04 (24 years ago)
Launch vehicle
Unknown
Launch site
Tanegashima Space Center (TNSTA)
Object type
Payload
Rocket body
Debris
Shape & HBR
Cyl, 4.6 m
Radar Cross Section
35.186 m², Large (>1 m²)

Expand to show TLE details & history
Last TLE update: 23 hours ago

TLE from 23 hours ago
0 H-2A R/B
1 27369U 02003C   25348.64893766  .00000046  00000-0  00000-0 0  9993
2 27369  23.7501 204.4405 6853564 138.5241 301.4644  2.37190486206120
Epoch: 2025-12-14T15:34Z
TLE epoch observation values (Epoch: 2025-12-14T15:34:28.213Z)
Latitude
-0.00001°
Longitude
-112.64593°
Altitude
19,486.45 km
Speed
3.747 km/s
True Right ascension
13h 38m 07s
True Declination
0° 00' 00"
Sunlit
Object was in daylight at epoch
Visualization orbit readout
Latitude
Unknown
Longitude
Unknown
Altitude
Unknown
Speed
Unknown
Apparent Right ascension
Unknown
Apparent Declination
Unknown
Sunlit
N/A
Visualization observer readout
Local Sidereal Time
13:22:49
Azimuth
Unknown
Elevation
Unknown
Doppler factor
Unknown
Orbital elements
Apogee altitude
33,655.846 km
Perigee altitude
1,095.912 km
Semi-major axis
23,754.016 km
Eccentricity
0.68536
Inclination
23.7501°
RAAN
204.4405°
Arg. of periapsis
138.5241°
True anomaly
221.52558°
Mean anomaly
301.4644°
Eccentric anomaly
262.52967°
Mean motion
0.59284 °/min
Orbital period
607.25 mins
BSTAR
0
Loading maneuver chart data...
Computing Atmospheric mass density...
Loading historical data...
Loading historical data...
Loading historical data...
Loading historical data...
Loading historical data...
Loading historical data...
Loading historical data...
Other satellites on launch #3 in the year 2002 (2002-02-04 UTC)

Documentation

Showing up to 5 results
|